TimeIST,TemperatureF,Dew PointF,Humidity,Sea Level PressureIn,VisibilityMPH,Wind Direction,Wind SpeedMPH,Gust SpeedMPH,PrecipitationIn,Events,Conditions,WindDirDegrees,DateUTC
12:10 AM,64.4,55.4,73,29.92,1.2,Calm,Calm,-,N/A,,Haze,0,2013-01-04 18:40:00
1:10 AM,59.0,53.6,82,29.92,1.2,Calm,Calm,-,N/A,,Haze,0,2013-01-04 19:40:00
2:10 AM,59.0,51.8,77,29.89,1.2,Calm,Calm,-,N/A,,Haze,0,2013-01-04 20:40:00
3:10 AM,59.0,53.6,82,29.89,1.6,Calm,Calm,-,N/A,,Haze,0,2013-01-04 21:40:00
4:10 AM,59.0,53.6,82,29.86,1.6,Calm,Calm,-,N/A,,Haze,0,2013-01-04 22:40:00
5:10 AM,57.2,53.6,88,29.86,1.6,Calm,Calm,-,N/A,,Haze,0,2013-01-04 23:40:00
5:30 AM,54,52,92,29.88,1,Calm,Calm,,,,Haze,,2013-01-05 00:00:00
6:10 AM,57.2,51.8,82,29.86,1.6,Calm,Calm,-,N/A,,Haze,0,2013-01-05 00:40:00
7:10 AM,57.2,51.8,82,29.89,-9999.0,North,-9999.0,-,N/A,,Mist,0,2013-01-05 01:40:00
8:10 AM,60.8,55.4,82,29.89,0.9,NNW,2.3,-,N/A,,Mist,340,2013-01-05 02:40:00
8:30 AM,62,57,79,29.90,1,NNW,2.3,,,,Mist,340,2013-01-05 03:00:00
10:10 AM,71.6,55.4,57,29.92,1.9,NE,4.6,-,N/A,,Haze,50,2013-01-05 04:40:00
12:10 PM,78.8,59.0,51,29.86,2.5,ENE,2.3,-,N/A,,Haze,70,2013-01-05 06:40:00
1:10 PM,87.8,64.4,46,29.83,2.5,East,2.3,-,N/A,,Haze,100,2013-01-05 07:40:00
2:10 PM,89.6,68.0,49,29.80,2.5,ENE,2.3,-,N/A,,Haze,70,2013-01-05 08:40:00
2:30 PM,84,71,56,,2,Calm,Calm,,,,Haze,,2013-01-05 09:00:00
3:10 PM,89.6,66.2,46,29.77,2.5,Calm,Calm,-,N/A,,Haze,0,2013-01-05 09:40:00
4:10 PM,87.8,66.2,49,29.77,2.5,ENE,2.3,-,N/A,,Haze,60,2013-01-05 10:40:00
5:10 PM,84.2,64.4,51,29.80,1.6,NE,2.3,-,N/A,,Mist,40,2013-01-05 11:40:00
5:30 PM,78,70,69,29.75,1,ENE,3.5,,,,Mist,70,2013-01-05 12:00:00
6:10 PM,77.0,64.4,65,29.80,1.2,Calm,Calm,-,N/A,,Haze,0,2013-01-05 12:40:00
7:10 PM,73.4,62.6,69,29.83,1.2,Calm,Calm,-,N/A,,Mist,0,2013-01-05 13:40:00
8:10 PM,73.4,64.4,73,29.86,1.2,Calm,Calm,-,N/A,,Haze,0,2013-01-05 14:40:00
8:30 PM,68,65,87,29.85,1,NNE,4.6,,,,Haze,20,2013-01-05 15:00:00
9:10 PM,71.6,62.6,73,29.86,1.2,NNE,3.5,-,N/A,,Haze,30,2013-01-05 15:40:00
10:10 PM,69.8,57.2,64,29.86,1.6,NNE,3.5,-,N/A,,Haze,30,2013-01-05 16:40:00
11:10 PM,68.0,53.6,60,29.89,1.6,NE,2.3,-,N/A,,Haze,40,2013-01-05 17:40:00